Overview Statistics Trail Chart Weather Telemetry Raw packets
 

This is the latest recevied weather packets stored in our database for station/object EA5CLU-13. If no packets are shown the sender has not sent any weather packets the latest 10 day(s).

<< 34 35 36 37 38 39 40 >>
Time Temp. Humidity Pressure Rain* Wind** Luminosity Snow
1787774239 26.67° C - 1013.1 hPa 0 mm - - -
1787773938 26.67° C - 1012.9 hPa 0 mm - - -
1787773639 26.67° C - 1012.9 hPa 0 mm - - -
1787773338 26.67° C - 1012.5 hPa 0 mm - - -
1787773038 26.67° C - 1012.6 hPa 0 mm - - -
1787772740 27.22° C - 1012.5 hPa 0 mm - - -
1787772439 26.67° C - 1012.3 hPa 0 mm - - -
1787772139 26.67° C - 1012.3 hPa 0 mm - - -
1787771839 27.22° C - 1012.2 hPa 0 mm - - -
1787771540 27.78° C - 1012.3 hPa 0 mm - - -
1787771238 27.78° C - 1011.8 hPa 0 mm - - -
1787770938 27.78° C - 1011.8 hPa 0 mm - - -
1787770639 28.33° C - 1011.8 hPa 0 mm - - -
1787770339 28.33° C - 1011.7 hPa 0 mm - - -
1787770039 28.33° C - 1011.5 hPa 0 mm - - -
1787769739 28.33° C - 1011.5 hPa 0 mm - - -
1787769439 28.33° C - 1011.3 hPa 0 mm - - -
1787769140 28.33° C - 1011.3 hPa 0 mm - - -
1787768838 28.89° C - 1011.4 hPa 0 mm - - -
1787768538 29.44° C - 1011.3 hPa 0 mm - - -
1787768238 29.44° C - 1011.5 hPa 0 mm - - -
1787767938 28.89° C - 1011.4 hPa 0 mm - - -
1787767638 29.44° C - 1011.4 hPa 0 mm - - -
1787766843 30° C - 1011.3 hPa 0 mm - - -
1787766543 30° C - 1011.4 hPa 0 mm - - -

* Rain latest hour (hover to see other rain measurements)
** Current wind speed in m/s (hover to see current wind gust speed)